Regional Weather Roundup
Issued by NWS

Home | Current Version | Previous Version | Text Only | Print | Product List | Glossary Off
Versions: 1 2 3 4 5 6 7 8 9 10 11 12 13 14 15 16 17 18 19 20 21 22 23 24 25 26 27 28 29 30 31 32 33 34 35 36 37 38 39 40 41 42 43 44 45 46 47 48 49 50

000
ASUS43 KLOT 300106
RWRIL

ILLINOIS REGIONAL WEATHER ROUNDUP
NATIONAL WEATHER SERVICE CHICAGO/ROMEOVILLE IL
800 PM CDT FRI AUG 29 2014

NOTE: "FAIR" INDICATES FEW OR NO CLOUDS BELOW 12,000 FEET WITH NO
SIGNIFICANT WEATHER AND/OR OBSTRUCTIONS TO VISIBILITY.

* THESE STATIONS ARE NOT UNDER NWS QUALITY CONTROL. THEY ALSO MAY NOT
  REPORT WEATHER SUCH AS PRECIPITATION OR FOG.

ILZ001-002-007-009-015-016-024-300200-
NORTHWEST ILLINOIS

CITY           SKY/WX    TMP DP  RH WIND       PRES   REMARKS
MOLINE         RAIN      78  71  79 S12       29.80F HX  80
STERLING*      MOCLDY    73  66  78 SE6       29.84S
SAVANNA*       MOCLDY    79  70  74 SE8       29.80F HX  81
$$

ILZ003-004-008-010-011-017-018-300200-
NORTH CENTRAL ILLINOIS

CITY           SKY/WX    TMP DP  RH WIND       PRES   REMARKS
ROCKFORD       MOCLDY    78  71  79 SE14      29.86S HX  80
FREEPORT*      MOCLDY    75  72  88 SE6       29.86S
ROCHELLE*      TSTM      73  66  79 SW22G37   29.91R
DE KALB*       MOCLDY    73  69  89 SW10      29.90R THUNDER
PERU*          CLOUDY    80  73  78 SE10G16   29.86R HX  84
$$

ILZ005-006-012>014-019>023-300200-
NORTHEAST ILLINOIS

CITY           SKY/WX    TMP DP  RH WIND       PRES   REMARKS
CHICAGO-OHARE  MOCLDY    80  68  66 S10       29.88S HX  83
CHICAGO-MIDWAY MOCLDY    82  72  71 SE14G24   29.88F HX  87
AURORA         PTCLDY    75  70  84 SE8       29.88S HAZE
LANSING*         N/A    N/A N/A N/A MISG        N/A
JOLIET*        PTCLDY    76  68  76 S5        29.89S
WAUKEGAN       PTCLDY    76  71  85 SE15G25   29.88R
DUPAGE AIRPORT PTCLDY    79  71  76 SE8       29.88R HX  82
KANKAKEE*      PTCLDY    76  70  82 SE8       29.90S
WHEELING       PTCLDY    80  72  76 SE7       29.89S HX  84
MORRIS*        MOCLDY    77  73  90 SE6       29.88S
ROMEOVILLE*    PTCLDY    76  68  78 S7        29.89R
NORTHERLY ISL    N/A     78  69  73 S12         N/A  HX  80
$$

LMZ740>746-300200-
SOUTHERN LAKE MICHIGAN

STATION/POSITION SKY/WX   TEMP    WIND        PRES    VSBY  WAVE
                          AIR SEA DIR/SP/G                  HT/PER
                          (F)     (DEG/KT/KT) (MB)    (MI)  (FT/S)
SOUTHERN BUOY              72 69  160/ 14/ 16 1012.1R         2/ 4
WAUKEGAN HARBOR            75     160/ 19/ 21   N/A
HARRISON CRIB              75     160/ 17/ 20   N/A
BURNHAM HARBOR             78     130/ 13/ 13   N/A
CALUMET HARBOR             77     150/  8/ 12 1011.3F
MICHIGAN CITY              76     120/  8/ 10   N/A
MICHIGAN CITY 6N           74 72  140/ 10/ 12   N/A           1
ST. JOSEPH                 73 71  140/  8/ 10   N/A           1
$$

ILZ025>027-034>036-040-047-049-050-058-095>099-300200-
WEST-CENTRAL ILLINOIS

CITY           SKY/WX    TMP DP  RH WIND       PRES   REMARKS
QUINCY         MOCLDY    72  70  93 SE7       29.84S
GALESBURG*     TSTM      71  68  89 S10G16    29.86R
MACOMB*        CLOUDY    70  70 100 SE6       29.87R
JACKSONVILLE*  CLOUDY    73  71  93 SE6       29.90S
PITTSFIELD*    CLOUDY    74  71  91 CALM      29.87S FOG
$$

ILZ028>032-037-038-041>044-048-051>054-059>061-300200-
CENTRAL ILLINOIS

CITY           SKY/WX    TMP DP  RH WIND       PRES   REMARKS
PONTIAC        MOCLDY    77  75  94 SE5       29.87F FOG
DECATUR        CLEAR     79  71  76 S8        29.90R HX  82
PEORIA         MOCLDY    77  70  79 SE3       29.84F
LACON*         MOCLDY    74  69  86 CALM      29.84S
LINCOLN*       CLEAR     77  70  79 S7        29.84S
SPRINGFIELD    CLOUDY    82  69  64 S10       29.86S HX  85
TAYLORVILLE    CLEAR     77  70  78 SE8       29.88S
$$

ILZ033-039-045-046-055>057-062-063-300200-
EAST-CENTRAL ILLINOIS

CITY           SKY/WX    TMP DP  RH WIND       PRES   REMARKS
CHAMPAIGN      PTCLDY    76  70  82 SE6       29.91R
DANVILLE*      RAIN      74  70  88 S5        29.90S
RANTOUL*       MOCLDY    78  70  78 SE7       29.92R
MATTOON        CLEAR     79  67  66 S7        29.91R HX  81
PARIS*         PTCLDY    73  71  93 SE3       29.94R
$$

ILZ079-100>102-300200-
SOUTHWEST ILLINOIS

CITY           SKY/WX    TMP DP  RH WIND       PRES   REMARKS
ALTON          CLOUDY    82  63  51 SE6       29.88R HX  83
BELLEVILLE     CLOUDY    78  71  77 VRB6      29.89R HX  81
CAHOKIA*       MOCLDY    81  67  62 S6        29.88R HX  83
SPARTA*        PTCLDY    79  68  69 S10G16    29.93R HX  81
$$

ILZ064>066-069>071-074>076-080>082-084>086-088>090-092>094-300200-
SOUTH-CENTRAL ILLINOIS

CITY           SKY/WX    TMP DP  RH WIND       PRES   REMARKS
CARBONDALE     MOCLDY    78  68  71 S8        29.93R HX  80
CAIRO*         PTCLDY    79  72  79 CALM      29.94R HX  82
EFFINGHAM*     CLEAR     76  67  72 SE5       29.92R
MARION         CLOUDY    82  70  65 S10       29.94R HX  86
MT. VERNON     PTCLDY    79  66  65 SE5       29.93R HX  81
CENTRALIA*     PTCLDY    79  66  65 S7        29.92R HX  81
SALEM*         PTCLDY    82  70  68 SE3       29.92R HX  86
METROPOLIS*    CLOUDY    81  68  65 CALM      29.94R HX  84
$$

ILZ067-068-072-073-078-083-087-091-300200-
SOUTHEAST ILLINOIS

CITY           SKY/WX    TMP DP  RH WIND       PRES   REMARKS
LAWRENCEVILLE  CLEAR     78  74  87 SE6       29.93S HX  81
FLORA*         CLEAR     76  68  74 S6        29.93R
FAIRFIELD*     CLEAR     81  73  78 S3        29.93R HX  85
HARRISBURG*    CLEAR     77  72  83 CALM      29.95R
ROBINSON*      CLEAR     77  73  88 S6        29.94R
CARMI*         CLEAR     77  74  90 S5        29.93R
$$

ABBREVIATIONS USED IN REMARKS
   TC - TEMPERATURE IN CELSIUS
  WCI - WIND CHILL INDEX
   HX - HEAT INDEX
  VSB - VISIBILITY
$$




USA.gov is the U.S. government's official web portal to all federal, state and local government web resources and services.